| time (UTC) | temp C | wind direction | speed KPH | gust KPH | rain 1hr cm | rain 24hr cm | rain mn cm | humidity % | barometer mb |
| 20260506154854 | 22 | 170 | 22.5 | 0.0 | 0.00 | 0.00 | 0.00 | 38 | 1015.0 |
| 20260506153353 | 22 | 170 | 22.5 | 0.0 | 0.00 | 0.00 | 0.00 | 38 | 1015.0 |
| 20260506151853 | 22 | 170 | 22.5 | 0.0 | 0.00 | 0.00 | 0.00 | 38 | 1015.0 |
| 20260506150359 | 22 | 170 | 22.5 | 0.0 | 0.00 | 0.00 | 0.00 | 38 | 1015.0 |
| 20260506144853 | 22 | 200 | 17.7 | 0.0 | 0.00 | 0.00 | 0.00 | 38 | 1015.0 |
| 20260506143405 | 22 | 200 | 17.7 | 0.0 | 0.00 | 0.00 | 0.00 | 38 | 1015.0 |
| 20260506141853 | 22 | 200 | 17.7 | 0.0 | 0.00 | 0.00 | 0.00 | 38 | 1015.0 |
| 20260506140515 | -17 | 0.0 | 0.0 | 0.00 | 0.00 | 0.00 | |||
| 20260506134918 | 22 | 150 | 22.5 | 0.0 | 0.00 | 0.00 | 0.00 | 38 | 1015.0 |
| 20260506133353 | 22 | 150 | 22.5 | 0.0 | 0.00 | 0.00 | 0.00 | 38 | 1015.0 |
| 20260506131850 | 22 | 150 | 22.5 | 0.0 | 0.00 | 0.00 | 0.00 | 38 | 1015.0 |
| 20260506130402 | 22 | 150 | 22.5 | 0.0 | 0.00 | 0.00 | 0.00 | 38 | 1015.0 |
| 20260506124854 | 22 | 170 | 17.7 | 0.0 | 0.00 | 0.00 | 0.00 | 38 | 1015.0 |
| 20260506123353 | 22 | 170 | 17.7 | 0.0 | 0.00 | 0.00 | 0.00 | 38 | 1015.0 |
| 20260506121854 | 22 | 170 | 17.7 | 0.0 | 0.00 | 0.00 | 0.00 | 38 | 1015.0 |
| 20260506120353 | 22 | 170 | 17.7 | 0.0 | 0.00 | 0.00 | 0.00 | 38 | 1015.0 |
| 20260506114853 | 22 | 170 | 17.7 | 0.0 | 0.00 | 0.00 | 0.00 | 41 | 1015.0 |
| 20260506113354 | 22 | 170 | 17.7 | 0.0 | 0.00 | 0.00 | 0.00 | 41 | 1015.0 |
| 20260506111853 | 22 | 170 | 17.7 | 0.0 | 0.00 | 0.00 | 0.00 | 41 | 1015.0 |
| 20260506110353 | 22 | 170 | 17.7 | 0.0 | 0.00 | 0.00 | 0.00 | 41 | 1015.0 |
| 20260506104853 | 22 | 190 | 17.7 | 0.0 | 0.00 | 0.00 | 0.00 | 38 | 1016.0 |
| 20260506103354 | 22 | 190 | 17.7 | 0.0 | 0.00 | 0.00 | 0.00 | 38 | 1016.0 |
| 20260506101854 | 22 | 190 | 17.7 | 0.0 | 0.00 | 0.00 | 0.00 | 38 | 1016.0 |
| 20260506100354 | 22 | 190 | 17.7 | 0.0 | 0.00 | 0.00 | 0.00 | 38 | 1016.0 |
| 20260506094854 | 21 | 170 | 14.5 | 0.0 | 0.00 | 0.00 | 0.00 | 43 | 1016.0 |
| 20260506093353 | 21 | 170 | 14.5 | 0.0 | 0.00 | 0.00 | 0.00 | 43 | 1016.0 |
| 20260506091853 | 21 | 170 | 14.5 | 0.0 | 0.00 | 0.00 | 0.00 | 43 | 1016.0 |
| 20260506090353 | 21 | 170 | 14.5 | 0.0 | 0.00 | 0.00 | 0.00 | 43 | 1016.0 |
| 20260506084854 | 20 | 190 | 14.5 | 0.0 | 0.00 | 0.00 | 0.00 | 40 | 1016.0 |
| 20260506083353 | 20 | 190 | 14.5 | 0.0 | 0.00 | 0.00 | 0.00 | 40 | 1016.0 |
| 20260506081850 | 20 | 190 | 14.5 | 0.0 | 0.00 | 0.00 | 0.00 | 40 | 1016.0 |
| 20260506080354 | 20 | 190 | 14.5 | 0.0 | 0.00 | 0.00 | 0.00 | 40 | 1016.0 |
| 20260506073354 | 17 | 210 | 14.5 | 0.0 | 0.00 | 0.00 | 0.00 | 52 | 1016.0 |
| 20260506071853 | 17 | 210 | 14.5 | 0.0 | 0.00 | 0.00 | 0.00 | 52 | 1016.0 |
| 20260506070353 | 17 | 210 | 14.5 | 0.0 | 0.00 | 0.00 | 0.00 | 52 | 1016.0 |
| 20260506061854 | 16 | 210 | 14.5 | 0.0 | 0.00 | 0.00 | 0.00 | 52 | 1015.0 |
| 20260506060355 | 16 | 210 | 14.5 | 0.0 | 0.00 | 0.00 | 0.00 | 52 | 1015.0 |
| 20260506050407 | 13 | 250 | 14.5 | 0.0 | 0.00 | 0.00 | 0.00 | 59 | 1015.0 |
| 20260506044909 | 10 | 260 | 8.0 | 0.0 | 0.00 | 0.00 | 0.00 | 71 | 1015.0 |
| 20260506043357 | 10 | 260 | 8.0 | 0.0 | 0.00 | 0.00 | 0.00 | 71 | 1015.0 |
| 20260506041854 | 10 | 260 | 8.0 | 0.0 | 0.00 | 0.00 | 0.00 | 71 | 1015.0 |
| 20260506040353 | 10 | 260 | 8.0 | 0.0 | 0.00 | 0.00 | 0.00 | 71 | 1015.0 |
| 20260506034854 | 7 | 4.8 | 0.0 | 0.00 | 0.00 | 0.00 | 76 | 1015.0 | |
| 20260506033353 | 7 | 4.8 | 0.0 | 0.00 | 0.00 | 0.00 | 76 | 1015.0 | |
| 20260506031853 | 7 | 4.8 | 0.0 | 0.00 | 0.00 | 0.00 | 76 | 1015.0 | |
| 20260506030353 | 7 | 4.8 | 0.0 | 0.00 | 0.00 | 0.00 | 76 | 1015.0 | |
| 20260506024853 | 7 | 4.8 | 0.0 | 0.00 | 0.00 | 0.00 | 87 | 1016.0 | |
| 20260506023353 | 7 | 4.8 | 0.0 | 0.00 | 0.00 | 0.00 | 87 | 1016.0 | |
| 20260506021851 | -17 | 0.0 | 0.0 | 0.00 | 0.00 | 0.00 | |||
| 20260506020353 | -17 | 0.0 | 0.0 | 0.00 | 0.00 | 0.00 | |||
| 20260506014853 | 8 | 4.8 | 0.0 | 0.00 | 0.00 | 0.00 | 87 | 1016.0 | |
| 20260506013353 | 8 | 4.8 | 0.0 | 0.00 | 0.00 | 0.00 | 87 | 1016.0 | |
| 20260506011854 | 8 | 4.8 | 0.0 | 0.00 | 0.00 | 0.00 | 87 | 1016.0 | |
| 20260506010353 | 8 | 4.8 | 0.0 | 0.00 | 0.00 | 0.00 | 87 | 1016.0 | |
| 20260506004850 | 8 | 4.8 | 0.0 | 0.00 | 0.00 | 0.00 | 87 | 1016.0 | |
| 20260506003516 | -17 | 0.0 | 0.0 | 0.00 | 0.00 | 0.00 | |||
| 20260506001854 | 10 | 4.8 | 0.0 | 0.00 | 0.00 | 0.00 | 88 | 1016.0 | |
| 20260506000354 | 10 | 4.8 | 0.0 | 0.00 | 0.00 | 0.00 | 88 | 1016.0 | |
| 20260505234854 | -17 | 0.0 | 0.0 | 0.00 | 0.00 | 0.00 | |||
| 20260505233353 | -17 | 0.0 | 0.0 | 0.00 | 0.00 | 0.00 | |||
| 20260505231853 | -17 | 0.0 | 0.0 | 0.00 | 0.00 | 0.00 | |||
| 20260505230354 | -17 | 0.0 | 0.0 | 0.00 | 0.00 | 0.00 | |||
| 20260505224854 | 12 | 4.8 | 0.0 | 0.00 | 0.00 | 0.00 | 77 | 1015.0 | |
| 20260505223353 | 12 | 4.8 | 0.0 | 0.00 | 0.00 | 0.00 | 77 | 1015.0 | |
| 20260505221851 | 12 | 4.8 | 0.0 | 0.00 | 0.00 | 0.00 | 77 | 1015.0 | |
| 20260505220354 | 12 | 4.8 | 0.0 | 0.00 | 0.00 | 0.00 | 77 | 1015.0 | |
| 20260505214854 | 12 | 4.8 | 0.0 | 0.00 | 0.00 | 0.00 | 77 | 1015.0 | |
| 20260505213354 | 12 | 4.8 | 0.0 | 0.00 | 0.00 | 0.00 | 72 | 1015.0 | |
| 20260505211853 | 12 | 4.8 | 0.0 | 0.00 | 0.00 | 0.00 | 72 | 1015.0 | |
| 20260505210354 | 12 | 4.8 | 0.0 | 0.00 | 0.00 | 0.00 | 72 | 1015.0 | |
| 20260505204855 | 12 | 4.8 | 0.0 | 0.00 | 0.00 | 0.00 | 72 | 1015.0 | |
| 20260505203353 | 12 | 4.8 | 0.0 | 0.00 | 0.00 | 0.00 | 77 | 1014.0 | |
| 20260505201924 | 12 | 4.8 | 0.0 | 0.00 | 0.00 | 0.00 | 77 | 1014.0 | |
| 20260505200354 | 12 | 4.8 | 0.0 | 0.00 | 0.00 | 0.00 | 77 | 1014.0 | |
| 20260505194853 | 15 | 160 | 17.7 | 0.0 | 0.00 | 0.00 | 0.00 | 63 | 1014.0 |
| 20260505193353 | 15 | 160 | 17.7 | 0.0 | 0.00 | 0.00 | 0.00 | 63 | 1014.0 |
| 20260505191853 | 15 | 160 | 17.7 | 0.0 | 0.00 | 0.00 | 0.00 | 63 | 1014.0 |
| 20260505190353 | 15 | 160 | 17.7 | 0.0 | 0.00 | 0.00 | 0.00 | 63 | 1014.0 |
| 20260505184854 | 16 | 180 | 11.3 | 0.0 | 0.00 | 0.00 | 0.00 | 63 | 1014.0 |
| 20260505183354 | 16 | 180 | 11.3 | 0.0 | 0.00 | 0.00 | 0.00 | 63 | 1014.0 |
| 20260505181851 | 16 | 180 | 11.3 | 0.0 | 0.00 | 0.00 | 0.00 | 63 | 1014.0 |
| 20260505180354 | 16 | 180 | 11.3 | 0.0 | 0.00 | 0.00 | 0.00 | 63 | 1014.0 |
| 20260505174848 | -17 | 180 | 8.0 | 0.0 | 0.00 | 0.00 | 0.00 | 1014.0 | |
| 20260505173353 | -17 | 180 | 8.0 | 0.0 | 0.00 | 0.00 | 0.00 | 1014.0 | |
| 20260505171853 | -17 | 180 | 8.0 | 0.0 | 0.00 | 0.00 | 0.00 | 1014.0 | |
| 20260505170354 | -17 | 180 | 8.0 | 0.0 | 0.00 | 0.00 | 0.00 | 1014.0 | |
| 20260505164853 | 22 | 180 | 8.0 | 0.0 | 0.00 | 0.00 | 0.00 | 38 | 1013.0 |
| 20260505163354 | 22 | 180 | 8.0 | 0.0 | 0.00 | 0.00 | 0.00 | 38 | 1013.0 |
| 20260505161854 | 22 | 180 | 8.0 | 0.0 | 0.00 | 0.00 | 0.00 | 38 | 1013.0 |
| 20260505160354 | 22 | 180 | 8.0 | 0.0 | 0.00 | 0.00 | 0.00 | 38 | 1013.0 |